C/2017 C2 ( PanSTARRS )

Japanese version
Home page
Updated on March 3, 2018

---------------------------------------------------------------------

* Profile

Discovery Date February 4, 2017
Magnitude 19.6 mag
Discoverer Pan-STARRS 1 telescope (Haleakala)

* Pictures

* Orbital Elements

Epoch 2017 Jan. 7.0 TT = JDT 2457760.5
T 2017 Jan. 21.61281 TT                                 MPCW
q   2.4309945            (2000.0)            P               Q
z  +0.0101744      Peri.  138.77427     -0.03648214     +0.56509773
 +/-0.0000056      Node   249.81967     +0.51729327     +0.71634837
e   0.9752661      Incl.  118.58316     +0.85503025     -0.40927934
From 85 observations 2017 Feb. 4-Nov. 16, mean residual 0".5.

* Magnitudes Graph

        m1 = 11.5 + 5 log d + 14.0 log r

---------------------------------------------------------------------

The orbital elements are published on M.P.E.C. 2017-X08.
The magnitudes graphs are made with Comet for Windows.

---------------------------------------------------------------------

Copyright(C) Seiichi Yoshida (comet@aerith.net). All rights reserved.